Regional Weather Roundup
Issued by NWS

Home | Current Version | Previous Version | Graphics & Text | Print | Product List | Glossary On
Versions: 1 2 3 4 5 6 7 8 9 10 11 12 13 14 15 16 17 18 19 20 21 22 23 24 25 26 27 28 29 30 31 32 33 34 35 36 37 38 39 40 41 42 43 44 45 46 47 48 49 50
867
ASUS44 KJAN 300310
RWRMS

MISSISSIPPI HOURLY WEATHER ROUNDUP
NATIONAL WEATHER SERVICE JACKSON MS
1000 PM CDT SUN MAR 29 2015

NOTE: "FAIR: INDICATES FEW OR NO CLOUDS BELOW 12,000 FEET WITH NO
SIGNIFICANT WEATHER AND/OR OBSTRUCTIONS TO VISIBILITY.

MSZ001>002-007>008-010>013-018>021-025>028-034>036-300400-
NORTHWEST MISSISSIPPI

CITY           SKY/WX    TMP DP  RH WIND       PRES   REMARKS
CLARKSDALE     MOCLDY    64  57  77 S3        30.07S
CLEVELAND      CLOUDY    68  60  77 S10       30.06R
GREENWOOD      CLOUDY    65  54  67 S7        30.08R
GREENVILLE     MOCLDY    67  57  70 S12       30.07R
OLIVE BRANCH   PTCLDY    61  54  77 CALM      30.07S
OXFORD         MOCLDY    63  48  59 CALM      30.09S
TUNICA         MOCLDY    61  54  77 S6        30.06S
$$

MSZ003>006-009-014>017-022>024-029>033-037>039-300400-
NORTHEAST MISSISSIPPI

CITY           SKY/WX    TMP DP  RH WIND       PRES   REMARKS
COLUMBUS AFB   CLEAR     61  47  60 S8        30.11R HAZE
CORINTH        CLOUDY    55  46  71 SE6       30.08S
GOLDN TRIANGLE CLEAR     63  48  59 S12       30.12R
STARKVILLE     FAIR      63  50  63 S6        30.11S
TUPELO         PTCLDY    60  45  57 S3        30.09S
$$

MSZ040-058-300400-
CENTRAL MISSISSIPPI

CITY           SKY/WX    TMP DP  RH WIND       PRES   REMARKS
JACKSON INTL   CLEAR     68  58  70 S16G23    30.13R
JACKSON HAWKNS CLEAR     69  58  67 S13G24    30.14R
MERIDIAN KEY   PTCLDY    62  55  77 S16G24    30.18R
MERIDIAN NAS   NOT AVBL
RAYMOND        FAIR      70  64  83 S10G20    30.12R
VICKSBURG      CLEAR     71  55  56 SW9       30.12R
$$

MSZ059>079-300400-
SOUTH MISSISSIPPI

CITY           SKY/WX    TMP DP  RH WIND       PRES   REMARKS
BROOKHAVEN       N/A     66  63  88 S8        30.19R
HATTIESBURG    PTCLDY    64  58  80 S9        30.22S
MCCOMB         CLEAR     64  60  87 S6        30.19R
NATCHEZ        CLEAR     68  57  68 S10       30.15F
PINE BELT      PTCLDY    63  55  77 S10       30.22R
$$

MSZ080>082-300400-
COASTAL MISSISSIPPI

CITY           SKY/WX    TMP DP  RH WIND       PRES   REMARKS
BILOXI         CLEAR     66  62  87 S10       30.23F
PASCAGOULA     PTCLDY    65  60  84 S7        30.24F
GULFPORT       CLEAR     67  61  81 S8        30.23S
$$



USA.gov is the U.S. government's official web portal to all federal, state and local government web resources and services.